North Adams, MA

6:34 AM EDT on May 26, 2018 (GMT -0400)
Harriman And West

Weather History for KAQW - September, 2013

Change the Weather History Date:

Tuesday, September 17, 2013

  Actual Average Record
Temperature  
Mean Temperature 48 °F -  
Max Temperature 63 °F 70 °F 84 °F (2017)
Min Temperature 34 °F 47 °F 33 °F (2007)
Degree Days  
Heating Degree Days 17    
Moisture  
Dew Point 37 °F    
Average Humidity 81    
Maximum Humidity 100    
Minimum Humidity 41    
Precipitation  
Precipitation 0.00 in - - ()
Sea Level Pressure  
Sea Level Pressure 30.41 in    
Wind  
Wind Speed 0 mph (WSW)    
Max Wind Speed 5 mph    
Max Gust Speed -    
Visibility 6 miles    
Events Fog    
Averages and records for this station are not official NWS values.
T = Trace of Precipitation, MM = Missing Value Source: NWS Daily Summary

Daily Weather History Graph

Daily Weather History Graph

Search for Another Location

Airport or City:

Astronomy

Sep. 17, 2013 Rise Set
Actual Time 6:34 AM EDT 6:58 PM EDT
Civil Twilight 6:06 AM EDT 7:26 PM EDT
Nautical Twilight 5:33 AM EDT 8:00 PM EDT
Astronomical Twilight 4:58 AM EDT 8:34 PM EDT
Moon 5:45 PM EDT (9/17) 4:24 AM EDT (9/17)
Length of Visible Light 13h 20m
Length of Day
12h 23m
Waxing Gibbous, 96% of the Moon is Illuminated
Sep 17
Waxing Gibbous
Sep 19
Full
Sep 26
Last Quarter
Oct 4
New
Oct 11
First Quarter

Hourly Weather History & Observations

Time (EDT) Temp. Dew Point Humidity Pressure Visibility Wind Dir Wind Speed Gust Speed Precip Events Conditions
12:52 AM 37.9 °F 36.0 °F 93% 30.34 in 10.0 mi Calm Calm - N/A   Clear
1:52 AM 37.0 °F 35.1 °F 93% 30.36 in 10.0 mi Calm Calm - N/A   Clear
2:52 AM 36.0 °F 34.0 °F 93% 30.36 in 10.0 mi Calm Calm - N/A   Clear
3:48 AM 35.6 °F 33.8 °F 93% 30.36 in 4.0 mi Calm Calm - N/A   Scattered Clouds
3:52 AM 36.0 °F 34.0 °F 93% 30.37 in 4.0 mi Calm Calm - N/A   Scattered Clouds
4:52 AM 35.1 °F 34.0 °F 96% 30.39 in 8.0 mi Calm Calm - N/A   Partly Cloudy
5:32 AM 35.6 °F 33.8 °F 93% 30.39 in 2.5 mi Calm Calm - N/A   Mostly Cloudy
5:37 AM 35.6 °F 33.8 °F 93% 30.39 in 1.2 mi Calm Calm - N/A   Mostly Cloudy
5:52 AM 35.1 °F 33.1 °F 92% 30.41 in 1.0 mi Calm Calm - N/A   Mist
6:01 AM 35.6 °F 33.8 °F 93% 30.40 in 0.8 mi Calm Calm - N/A   Mist
6:19 AM 35.6 °F 33.8 °F 93% 30.40 in 0.2 mi Calm Calm - N/A Fog Fog
6:52 AM 34.0 °F 34.0 °F 100% 30.43 in 0.2 mi Calm Calm - N/A Fog Fog
7:52 AM 35.1 °F 34.0 °F 96% 30.45 in 0.2 mi Calm Calm - N/A Fog Fog
8:07 AM 35.6 °F 35.6 °F 100% 30.44 in 0.5 mi Calm Calm - N/A Fog Fog
8:16 AM 37.4 °F 35.6 °F 93% 30.44 in 0.8 mi Calm Calm - N/A   Overcast
8:29 AM 37.4 °F 37.4 °F 100% 30.44 in 0.2 mi Calm Calm - N/A Fog Fog
8:37 AM 37.4 °F 37.4 °F 100% 30.45 in 1.2 mi Calm Calm - N/A   Overcast
8:41 AM 39.2 °F 37.4 °F 93% 30.44 in 2.0 mi Calm Calm - N/A   Overcast
8:49 AM 39.2 °F 39.2 °F 100% 30.45 in 7.0 mi Calm Calm - N/A   Mostly Cloudy
8:52 AM 41.0 °F 37.9 °F 89% 30.47 in 10.0 mi Calm Calm - N/A   Mostly Cloudy
9:02 AM 42.8 °F 39.2 °F 87% 30.45 in 10.0 mi Calm Calm - N/A   Scattered Clouds
9:52 AM 48.0 °F 37.0 °F 66% 30.47 in 10.0 mi Calm Calm - N/A   Clear
10:52 AM 53.1 °F 35.1 °F 50% 30.46 in 10.0 mi Calm Calm - N/A   Clear
11:52 AM 57.0 °F 37.0 °F 47% 30.45 in 10.0 mi Calm Calm - N/A   Clear
12:52 PM 57.9 °F 36.0 °F 44% 30.44 in 10.0 mi West 4.6 mph - N/A   Clear
1:52 PM 60.1 °F 37.9 °F 44% 30.41 in 10.0 mi Variable 3.5 mph - N/A   Clear
2:52 PM 60.1 °F 36.0 °F 41% 30.39 in 10.0 mi WSW 3.5 mph - N/A   Clear
3:52 PM 62.1 °F 39.0 °F 43% 30.38 in 10.0 mi Variable 4.6 mph - N/A   Clear
4:52 PM 62.1 °F 39.0 °F 43% 30.37 in 10.0 mi Variable 4.6 mph - N/A   Clear
5:52 PM 60.1 °F 37.9 °F 44% 30.37 in 10.0 mi Variable 3.5 mph - N/A   Clear
6:52 PM 53.1 °F 43.0 °F 69% 30.37 in 10.0 mi Calm Calm - N/A   Clear
7:52 PM 48.9 °F 45.0 °F 86% 30.38 in 10.0 mi Calm Calm - N/A   Clear
8:52 PM 46.0 °F 43.0 °F 89% 30.39 in 10.0 mi Calm Calm - N/A   Clear
9:52 PM 44.1 °F 42.1 °F 93% 30.39 in 10.0 mi Calm Calm - N/A   Clear
10:52 PM 43.0 °F 41.0 °F 93% 30.38 in 10.0 mi Calm Calm - N/A   Clear
11:52 PM 41.0 °F 39.0 °F 93% 30.38 in 10.0 mi Calm Calm - N/A   Clear